J6-a Sea,

2:56 PM CEST on August 17, 2017 (GMT +0200)
J6-a Sea

Weather History for EHJA - January, 2014

Change the Weather History Date:

Thursday, January 23, 2014

  Actual Average Record
Temperature  
Mean Temperature 42 °F -  
Max Temperature 44 °F - - ()
Min Temperature 41 °F - - ()
Degree Days  
Heating Degree Days 22    
Moisture  
Dew Point 40 °F    
Average Humidity 88    
Maximum Humidity 96    
Minimum Humidity 69    
Precipitation  
Precipitation 0.00 in - - ()
Sea Level Pressure  
Sea Level Pressure 29.76 in    
Wind  
Wind Speed 13 mph ()    
Max Wind Speed 32 mph    
Max Gust Speed -    
Visibility 6.5 miles    
Events Rain    
T = Trace of Precipitation, MM = Missing Value Source: Averaged Metar Reports

Daily Weather History Graph

Daily Weather History Graph

Search for Another Location

Airport or City:

Trip Planner

Search our weather history database for the weather conditions in past years. The results will help you decide how hot, cold, wet, or windy it might be!

Date:

Astronomy

Jan. 23, 2014 Rise Set
Actual Time 8:48 AM CET 5:12 PM CET
Civil Twilight 8:08 AM CET 5:52 PM CET
Nautical Twilight 7:25 AM CET 6:35 PM CET
Astronomical Twilight 6:43 AM CET 7:17 PM CET
Moon 12:31 AM CET (1/23) 11:07 AM CET (1/23)
Length of Visible Light 9h 43m
Length of Day
8h 23m
Waning Gibbous, 58% of the Moon is Illuminated
Jan 23
Waning Gibbous
Jan 24
Last Quarter
Jan 30
New
Feb 6
First Quarter
Feb 15
Full

Hourly Weather History & Observations

Time (CET) Temp. Windchill Dew Point Humidity Pressure Visibility Wind Dir Wind Speed Gust Speed Precip Events Conditions
12:00 AM 45 °F - 41 °F 80% 29.83 in 17 mi South 6.7 mph - -   Overcast
12:25 AM 44.6 °F 40.2 °F 41.0 °F 87% 29.80 in 6.2 mi South 8.1 mph - N/A   Mostly Cloudy
12:55 AM 44.6 °F 39.2 °F 41.0 °F 87% 29.80 in 6.2 mi South 10.4 mph - N/A   Mostly Cloudy
1:00 AM 45 °F - 42 °F 84% 29.83 in 11 mi South 8.9 mph - -   Partly Cloudy
1:25 AM 44.6 °F 39.2 °F 42.8 °F 93% 29.80 in 6.2 mi SSE 10.4 mph - N/A Rain Light Rain
1:55 AM 44.6 °F 38.8 °F 42.8 °F 93% 29.80 in 6.2 mi South 11.5 mph - N/A   Mostly Cloudy
2:00 AM 45 °F - 43 °F 90% 29.82 in 11 mi South 11.2 mph - - Rain Rain
2:25 AM 44.6 °F 38.8 °F 42.8 °F 93% 29.80 in 6.2 mi SSW 11.5 mph - N/A   Mostly Cloudy
2:55 AM 44.6 °F 39.7 °F 42.8 °F 93% 29.80 in 6.2 mi South 9.2 mph - N/A   Mostly Cloudy
3:00 AM 45 °F - 43 °F 92% 29.83 in 6 mi South 8.9 mph - -   Partly Cloudy
3:25 AM 44.6 °F 39.7 °F 42.8 °F 93% 29.80 in 6.2 mi South 9.2 mph - N/A   Scattered Clouds
3:55 AM 44.6 °F 39.2 °F 42.8 °F 93% 29.80 in 5.6 mi SSW 10.4 mph - N/A   Partly Cloudy
4:00 AM 44 °F - 43 °F 95% 29.82 in 6 mi SSW 6.7 mph - -   Mist
4:25 AM 44.6 °F 39.2 °F 42.8 °F 93% 29.80 in 5.6 mi SSW 10.4 mph - N/A   Partly Cloudy
4:55 AM 44.6 °F 39.2 °F 42.8 °F 93% 29.80 in 5.6 mi SSW 10.4 mph - N/A   Mostly Cloudy
5:00 AM 44 °F - 43 °F 95% 29.82 in 6 mi SSW 8.9 mph - -   Mist
5:25 AM 44.6 °F 39.7 °F 42.8 °F 93% 29.80 in 5.6 mi SSW 9.2 mph - N/A   Mostly Cloudy
5:55 AM 44.6 °F 39.2 °F 42.8 °F 93% 29.80 in 5.0 mi SSW 10.4 mph - N/A   Mostly Cloudy
6:00 AM 44 °F - 43 °F 96% 29.81 in 4 mi South 8.9 mph - -   Mist
6:25 AM 44.6 °F 39.2 °F 42.8 °F 93% 29.80 in 4.3 mi SSW 10.4 mph - N/A   Partly Cloudy
6:55 AM 44.6 °F 37.8 °F 42.8 °F 93% 29.80 in 5.6 mi SW 15.0 mph - N/A   Partly Cloudy
7:00 AM 44 °F - 43 °F 95% 29.80 in 6 mi SSW 11.2 mph - -   Mist
7:25 AM 44.6 °F 38.8 °F 42.8 °F 93% 29.77 in 5.0 mi SSW 11.5 mph - N/A   Partly Cloudy
7:55 AM 44.6 °F 38.1 °F 42.8 °F 93% 29.77 in 6.2 mi SW 13.8 mph - N/A   Scattered Clouds
8:00 AM 44 °F - 43 °F 93% 29.80 in 7 mi SW 11.2 mph - -   Overcast
8:25 AM 44.6 °F 38.1 °F 42.8 °F 93% 29.77 in 6.2 mi SW 13.8 mph - N/A   Mostly Cloudy
8:55 AM 44.6 °F 37.8 °F 42.8 °F 93% 29.77 in 5.6 mi SSW 15.0 mph - N/A   Partly Cloudy
9:00 AM 44 °F - 43 °F 93% 29.79 in 6 mi SSW 11.2 mph - -   Mist
9:25 AM 44.6 °F 39.2 °F 42.8 °F 93% 29.77 in 5.6 mi SSW 10.4 mph - N/A   Partly Cloudy
9:55 AM 44.6 °F 38.4 °F 42.8 °F 93% 29.77 in 5.6 mi SSW 12.7 mph - N/A   Partly Cloudy
10:00 AM 44 °F - 43 °F 93% 29.79 in 6 mi SSW 11.2 mph - -   Mist
10:25 AM 44.6 °F 38.4 °F 42.8 °F 93% 29.77 in 5.6 mi South 12.7 mph - N/A   Partly Cloudy
10:55 AM 44.6 °F 38.1 °F 42.8 °F 93% 29.77 in 5.6 mi SSW 13.8 mph - N/A   Partly Cloudy
11:00 AM 44 °F - 42 °F 91% 29.78 in 6 mi SSW 11.2 mph - -   Mist
11:25 AM 44.6 °F 38.1 °F 42.8 °F 93% 29.77 in 5.0 mi South 13.8 mph - N/A   Scattered Clouds
11:55 AM 44.6 °F 38.1 °F 42.8 °F 93% 29.74 in 5.6 mi South 13.8 mph - N/A   Partly Cloudy
12:00 PM 44 °F - 42 °F 92% 29.76 in 6 mi South 11.2 mph - -   Mist
12:25 PM 44.6 °F 37.8 °F 42.8 °F 93% 29.74 in 6.2 mi South 15.0 mph - N/A   Unknown
12:55 PM 44.6 °F 37.4 °F 42.8 °F 93% 29.71 in 5.0 mi South 16.1 mph - N/A   Scattered Clouds
1:00 PM 44 °F - 43 °F 93% 29.74 in 5 mi SSW 13.4 mph - -   Mist
1:25 PM 44.6 °F 37.2 °F 41.0 °F 87% 29.71 in 6.2 mi SSW 17.3 mph - N/A   Mostly Cloudy
1:55 PM 44.6 °F 37.4 °F 41.0 °F 87% 29.71 in 6.2 mi South 16.1 mph - N/A   Scattered Clouds
2:00 PM 44 °F - 41 °F 84% 29.72 in 11 mi SSW 15.7 mph - -   Overcast
2:25 PM 42.8 °F 34.0 °F 41.0 °F 93% 29.68 in 6.2 mi SSW 20.7 mph - N/A Rain Light Rain
2:55 PM 42.8 °F 32.5 °F 37.4 °F 81% 29.68 in 6.2 mi WSW 28.8 mph - N/A   Mostly Cloudy
3:00 PM 42 °F - 38 °F 81% 29.70 in 12 mi WSW 22.4 mph - - Rain Rain
3:25 PM 42.8 °F 33.1 °F 37.4 °F 81% 29.68 in 6.2 mi SW 25.3 mph - N/A   Overcast
3:55 PM 41.0 °F 31.1 °F 37.4 °F 87% 29.68 in 6.2 mi SW 23.0 mph - N/A   Mostly Cloudy
4:00 PM 41 °F - 37 °F 80% 29.69 in 11 mi SW 20.1 mph - - Rain Light Rain Showers
4:25 PM 41.0 °F 31.9 °F 37.4 °F 87% 29.68 in 6.2 mi SW 19.6 mph - N/A Rain Light Rain
4:55 PM 41.0 °F 31.4 °F 39.2 °F 93% 29.68 in 6.2 mi SW 21.9 mph - N/A Rain Light Rain
5:00 PM 41 °F - 37 °F 80% 29.69 in 5 mi West 22.4 mph - - Rain Light Rain
5:25 PM 41.0 °F 29.7 °F 37.4 °F 87% 29.68 in 5.0 mi West 31.1 mph - N/A Rain Light Rain
5:55 PM 41.0 °F 29.5 °F 37.4 °F 87% 29.68 in 5.0 mi West 32.2 mph - N/A Rain Light Rain
6:00 PM 41 °F - 37 °F 82% 29.70 in 6 mi West 29.1 mph - - Rain Light Rain
6:25 PM 41.0 °F 29.8 °F 37.4 °F 87% 29.68 in 4.3 mi West 29.9 mph - N/A Rain Light Rain
6:55 PM 41.0 °F 29.8 °F 35.6 °F 81% 29.71 in 6.2 mi WNW 29.9 mph - N/A Rain Light Rain
7:00 PM 41 °F - 36 °F 74% 29.72 in 10 mi WNW 24.6 mph - - Rain Light Rain
7:25 PM 42.8 °F 32.7 °F 37.4 °F 81% 29.71 in 6.2 mi WNW 27.6 mph - N/A   Mostly Cloudy
7:55 PM 42.8 °F 33.1 °F 35.6 °F 76% 29.71 in 6.2 mi WNW 25.3 mph - N/A   Mostly Cloudy
8:00 PM 43 °F - 36 °F 69% 29.73 in 11 mi WNW 22.4 mph - - Rain Light Rain Showers
8:25 PM 42.8 °F 32.5 °F 35.6 °F 76% 29.71 in 6.2 mi WNW 28.8 mph - N/A   Mostly Cloudy
8:55 PM 41.0 °F 30.0 °F 35.6 °F 81% 29.71 in 6.2 mi WNW 28.8 mph - N/A   Light Drizzle
9:00 PM 41 °F - 36 °F 77% 29.75 in 6 mi WNW 22.4 mph - - Rain Rain Showers
9:25 PM 41.0 °F 30.0 °F 37.4 °F 87% 29.74 in 6.2 mi WNW 28.8 mph - N/A   Mostly Cloudy
9:55 PM 41.0 °F 30.9 °F 37.4 °F 87% 29.74 in 6.2 mi West 24.2 mph - N/A Rain Light Rain
10:00 PM 41 °F - 37 °F 82% 29.76 in 8 mi West 20.1 mph - - Rain Light Rain Showers
10:25 PM 41.0 °F 31.1 °F 35.6 °F 81% 29.74 in 6.2 mi West 23.0 mph - N/A   Mostly Cloudy
10:55 PM 41.0 °F 32.5 °F 37.4 °F 87% 29.77 in 6.2 mi West 17.3 mph - N/A Rain Light Rain
11:00 PM 41 °F - 36 °F 77% 29.78 in 6 mi NW 15.7 mph - - Rain Light Rain Showers
11:25 PM 41.0 °F 30.5 °F 35.6 °F 81% 29.77 in 5.6 mi NW 26.5 mph - N/A Rain Light Rain
11:55 PM 41.0 °F 29.8 °F 37.4 °F 87% 29.77 in 6.2 mi West 29.9 mph - N/A Rain Light Rain